Location: Passau
(48.5830°N, 13.4830°E)
Time: 20:29:09
(UTC+02:00)

Envisat - Pass Details

Date: 25 April 2024
Orbit: 762 x 764 km, 98.3° (Epoch: 29 May)

Event Time Altitude Azimuth Distance (km) Brightness Sun altitude
Rises 02:49:20 0° 34° (NE) 3,238 7.7 -23.9°
Reaches altitude 10° 02:54:07 10° 75° (ENE) 2,303 6.0 -23.5°
Maximum altitude 02:54:58 10° 84° (E) 2,275 5.9 -23.4°
Drops below altitude 10° 02:55:49 10° 94° (E) 2,300 5.8 -23.3°
Sets 03:00:33 0° 135° (SE) 3,216 6.1 -22.9°
Enters shadow 03:00:35 - 135° (SE) 3,225 6.1 -22.9°
